GFSSGP_250_spd_078.txt.gz
Wind_Speed
28 28 33 40 30 29 34 32 31 34 35 36 41 45 47 49 50 48 42 33 24 13 6 3 3 3 6 8 12 15 15 15 17 19 20 20 21 23 23 24 24 25 27 29 25 17 18 12 10
28 31 33 39 34 35 35 35 36 36 38 42 47 50 54 57 58 57 47 32 22 10 5 4 3 2 4 6 7 12 16 17 17 18 20 22 21 21 22 25 24 26 31 27 21 24 20 10 8
31 31 32 32 37 41 38 38 36 39 41 44 49 55 59 59 58 59 47 35 21 11 6 5 4 3 12 12 11 12 13 13 16 18 20 23 24 23 24 24 27 31 31 28 24 19 19 12 8
31 31 32 33 38 45 42 39 38 40 41 45 51 56 59 62 61 61 50 35 20 12 6 6 7 11 10 9 8 8 10 13 15 16 19 22 25 25 25 25 31 33 29 28 23 18 17 14 8
34 32 31 33 36 42 46 42 42 40 40 45 52 56 61 63 62 61 49 35 18 12 11 13 14 10 7 5 7 9 12 14 15 17 19 21 22 26 28 28 33 33 30 25 20 18 15 14 11
38 38 36 35 36 40 45 44 41 41 39 45 50 56 61 62 62 58 46 31 16 15 19 16 12 7 1 4 6 4 6 7 8 14 21 22 27 29 28 29 36 34 32 24 21 23 15 16 17
36 34 39 39 35 39 43 46 42 41 41 44 48 54 59 62 60 53 41 25 15 18 17 17 19 18 10 5 5 6 5 9 8 8 16 24 27 30 29 31 38 36 36 29 21 19 20 22 18
37 40 40 38 38 35 40 44 44 37 34 46 49 52 57 62 59 50 37 24 12 20 20 19 16 19 23 19 16 18 28 27 27 16 15 22 29 28 29 33 36 37 37 32 23 23 22 20 13
38 39 41 40 37 36 41 43 45 28 42 45 45 50 55 62 59 49 34 21 13 18 14 16 18 20 27 26 22 21 21 20 19 19 14 17 24 27 26 30 36 39 36 29 24 23 19 17 16
38 40 39 40 39 37 38 42 40 30 26 38 39 47 53 59 60 53 35 18 11 14 19 16 19 22 24 24 21 19 17 14 11 12 13 10 12 21 25 26 32 39 38 27 29 23 18 18 16
40 41 39 40 39 38 37 40 40 30 26 32 37 43 48 55 59 53 39 21 11 19 18 17 19 24 19 22 19 18 15 14 16 11 11 9 12 17 23 23 25 37 36 27 28 18 21 24 16
43 43 42 41 40 40 38 40 41 39 32 35 35 39 45 51 56 53 40 21 9 18 13 15 12 14 18 21 23 19 14 15 14 10 8 10 8 17 23 24 27 30 32 25 24 17 22 20 14
43 44 44 43 42 40 38 39 42 40 34 34 33 37 42 47 48 49 38 19 10 14 15 15 11 13 12 15 15 16 19 20 14 13 9 8 6 13 21 24 25 26 28 26 21 16 17 14 12
44 47 47 46 45 41 38 39 40 39 35 32 34 36 41 44 43 44 30 16 7 10 15 13 9 9 14 11 7 11 14 18 21 15 8 7 7 8 21 21 23 22 23 23 16 16 17 15 13
47 49 51 48 45 42 39 41 39 40 36 33 33 34 38 41 38 36 20 16 11 6 15 14 12 5 4 6 8 7 10 9 13 12 11 5 6 7 15 18 24 18 17 20 20 20 19 18 17
50 51 50 48 45 41 42 42 42 43 35 32 32 33 36 38 40 23 9 9 12 5 14 17 15 12 7 2 6 5 6 6 3 0 3 3 2 8 12 18 20 19 17 20 21 25 23 20 17
52 50 47 46 44 43 44 45 46 42 35 28 31 34 36 36 39 10 4 5 6 3 12 19 18 18 11 9 5 6 4 17 10 8 2 1 3 7 15 16 20 19 17 19 21 19 17 19 20
54 50 46 46 44 45 45 47 47 45 35 29 28 34 34 37 37 21 4 2 11 7 6 17 20 19 19 17 11 8 8 14 12 16 12 7 6 3 8 18 21 25 23 20 22 18 15 16 17
55 54 52 52 49 47 48 48 46 39 38 38 35 33 37 38 35 30 9 12 8 10 14 10 14 21 23 13 12 13 11 13 12 20 28 18 9 5 4 10 24 23 23 27 24 21 19 16 21
57 56 54 53 51 48 49 50 45 42 40 41 42 35 38 38 36 33 25 13 17 18 16 14 15 27 22 12 11 15 10 7 7 7 8 11 16 14 8 10 15 22 26 26 30 27 22 21 24
59 59 56 54 52 48 48 48 44 46 45 44 43 44 40 37 39 33 30 25 17 28 26 25 20 23 23 13 8 19 12 11 7 9 10 9 6 10 13 20 21 19 20 25 29 28 30 25 27
63 63 58 53 47 49 49 44 47 49 51 49 49 46 46 42 43 34 32 31 23 23 38 34 30 28 28 26 16 16 25 15 11 13 13 13 13 13 19 21 28 29 25 23 26 30 28 31 30
62 63 58 52 50 52 46 50 51 51 55 57 55 51 48 50 42 42 38 32 32 28 29 39 39 37 33 35 26 23 19 20 12 12 20 15 13 18 19 20 21 33 30 26 28 28 32 31 34
61 61 59 55 55 55 49 54 50 54 56 59 59 63 50 52 54 46 41 39 33 30 27 35 44 48 40 42 37 26 29 25 19 14 13 16 13 11 10 14 14 20 31 34 31 31 30 32 33
66 65 64 62 59 55 57 57 57 58 58 59 59 65 58 51 54 52 49 45 38 33 34 33 33 56 47 48 40 33 27 22 18 21 19 13 12 10 12 16 14 20 23 35 38 36 36 36 35
72 71 67 64 61 62 63 62 60 63 63 62 63 61 55 53 55 55 54 50 43 34 37 36 40 43 53 56 41 35 30 30 25 25 18 14 13 16 17 17 17 21 29 29 36 39 41 38 39
77 72 69 70 68 67 65 67 69 69 70 65 63 55 54 54 55 57 56 53 44 38 37 40 38 38 38 42 48 40 31 37 35 28 25 19 15 21 29 30 32 32 34 38 35 37 43 44 41
82 78 75 73 71 68 67 71 76 70 76 71 56 61 57 55 56 57 55 52 46 41 40 40 39 38 34 32 34 40 45 44 41 37 35 23 19 18 24 24 26 25 29 31 34 36 40 48 48
86 83 79 78 76 73 71 77 74 80 78 74 61 58 60 59 58 54 54 51 46 41 41 40 37 34 30 30 33 36 45 44 44 42 37 31 27 24 15 14 20 20 25 32 38 36 39 41 53
87 86 85 83 78 77 76 79 77 76 74 72 66 65 65 59 61 58 50 46 46 43 43 41 33 32 22 27 39 27 36 43 45 40 40 35 33 34 30 28 14 23 24 28 35 40 38 38 38

GFSSGP_250_spd_084.txt.gz
Wind_Speed
25 26 35 46 37 34 36 35 33 30 41 43 51 56 60 58 42 27 22 21 18 17 11 9 9 9 10 12 10 18 33 31 29 25 23 22 23 24 24 21 18 19 19 19 22 27 21 21 20
27 19 43 45 37 33 36 36 37 36 43 46 53 58 63 59 42 25 25 25 21 17 13 12 12 10 9 8 12 16 23 28 25 24 24 23 22 22 21 20 20 20 20 29 28 27 21 16 19
33 25 31 43 43 35 37 41 36 32 38 46 51 57 64 56 39 28 25 24 21 19 19 18 17 16 15 11 9 10 12 14 17 19 20 20 20 21 20 20 19 22 31 28 30 21 17 16 18
28 20 27 43 42 38 41 43 45 38 42 46 50 57 58 54 35 25 23 26 24 23 22 18 16 15 15 15 14 12 9 8 9 13 17 20 19 18 19 20 20 28 35 28 26 23 19 19 20
28 25 37 42 45 42 39 41 44 40 40 44 48 52 56 55 36 23 24 25 24 22 21 17 12 11 10 8 6 5 6 8 10 13 16 19 18 18 19 19 21 27 35 29 27 25 18 19 19
30 35 39 40 40 44 45 42 45 44 41 41 47 52 54 52 34 20 24 22 22 21 21 18 14 12 10 7 5 2 7 12 14 16 16 19 19 19 19 20 21 25 33 31 30 26 21 21 18
34 36 38 39 39 42 43 41 40 43 39 39 45 49 51 51 35 15 21 21 26 25 24 23 20 20 20 20 19 15 6 5 15 20 21 22 22 19 20 20 23 25 31 31 31 26 22 19 15
39 38 39 42 43 40 43 37 34 39 38 38 40 43 48 47 48 14 17 21 25 26 24 24 24 24 23 22 21 21 20 15 4 16 22 22 25 23 19 19 23 30 31 30 31 26 23 15 12
40 39 42 43 41 41 43 38 36 37 41 36 34 38 44 48 48 26 14 19 22 25 26 27 22 20 19 19 16 21 24 20 18 9 21 21 22 25 22 21 25 32 31 27 28 27 21 14 7
41 40 40 42 41 41 41 44 38 34 36 33 31 34 40 44 44 39 8 13 17 21 24 26 25 19 20 20 16 18 23 25 18 15 17 22 21 21 22 23 26 30 31 28 25 24 20 10 12
45 44 42 43 42 41 42 45 39 31 33 31 29 31 36 39 40 40 21 6 9 13 19 21 22 27 24 18 17 16 20 23 23 16 14 16 19 20 21 23 27 28 33 30 25 26 17 11 16
46 47 46 45 47 41 40 41 40 29 31 32 25 26 31 34 36 36 34 6 7 9 10 15 17 19 22 23 24 21 20 23 22 19 15 17 13 16 19 21 27 27 27 29 28 24 13 12 15
48 48 49 47 48 45 41 42 38 31 29 29 21 23 27 29 32 31 31 25 5 2 5 8 12 15 15 20 21 24 24 23 20 17 13 9 10 15 16 22 28 30 25 24 22 19 16 16 18
48 49 50 51 51 49 42 38 35 32 28 26 19 21 24 26 29 29 29 28 18 8 5 5 3 6 12 9 12 16 19 21 19 15 13 11 10 11 13 17 24 31 31 26 24 20 16 14 17
51 52 54 54 51 49 46 42 35 35 33 27 22 18 20 21 27 27 24 27 26 19 14 12 12 7 7 5 6 11 9 10 15 12 7 8 11 10 12 14 17 25 32 27 25 24 21 21 17
54 56 56 53 51 51 47 45 35 38 37 31 28 18 16 15 23 26 21 23 25 27 24 15 15 16 12 9 4 9 13 12 9 9 7 4 4 9 12 12 12 18 29 29 25 21 22 21 18
62 64 61 57 54 54 50 48 42 38 37 33 29 28 15 16 17 21 20 17 20 25 28 23 16 18 17 17 14 10 9 15 14 15 7 1 3 1 9 14 16 17 21 24 24 25 24 20 23
70 69 63 59 58 56 53 51 51 39 37 31 29 28 24 17 16 18 19 18 16 21 24 25 26 22 20 20 21 18 14 13 16 18 13 9 8 3 6 12 20 22 21 20 22 24 23 22 21
71 64 63 59 61 60 57 55 51 45 41 34 32 29 24 19 18 18 18 17 17 16 23 25 26 28 21 21 25 23 26 16 13 19 17 17 9 14 6 14 20 22 26 27 23 21 22 21 24
77 71 65 64 62 58 57 52 51 50 44 41 35 30 26 21 22 20 21 22 20 19 20 22 22 28 31 31 29 24 15 18 17 18 14 16 18 19 18 15 17 23 25 28 27 25 25 26 25
76 73 68 65 65 59 58 51 49 52 46 41 34 28 27 21 20 24 24 26 27 25 26 29 24 26 26 32 33 33 25 21 19 17 12 12 16 15 18 19 17 17 23 29 30 31 31 29 28
78 73 73 70 68 61 59 50 49 54 46 40 34 29 28 23 24 25 26 30 31 30 30 33 31 32 32 30 31 30 35 28 24 25 22 16 15 18 14 14 18 20 22 25 32 32 31 32 32
82 80 76 73 68 63 61 56 57 57 48 41 36 32 29 26 26 29 27 30 34 33 33 35 35 35 38 36 32 27 32 36 32 27 27 23 18 17 22 18 19 21 21 26 31 35 34 34 35
90 87 81 75 69 62 64 66 60 57 52 43 37 37 35 31 32 31 31 35 35 38 37 39 39 40 36 35 33 29 25 37 37 35 31 25 24 18 22 22 21 21 22 22 26 35 34 32 34
93 91 86 77 69 59 76 68 62 59 54 46 43 38 36 38 36 36 35 37 38 39 40 41 43 41 39 37 32 28 25 23 37 42 38 34 25 23 19 20 26 22 20 22 24 24 27 35 37
96 93 88 79 73 68 78 63 65 59 53 50 47 40 42 42 42 39 41 43 44 43 44 45 44 38 41 38 33 30 19 17 25 43 43 37 33 23 22 27 20 15 17 22 27 28 25 25 27
96 97 87 85 78 75 72 66 67 64 55 52 49 46 46 47 47 44 46 47 48 48 47 48 41 36 39 39 33 24 13 13 38 38 43 43 38 28 22 22 20 18 19 23 25 23 21 26 34
96 97 98 89 83 76 75 72 70 66 59 54 52 47 47 49 50 48 50 49 52 51 47 45 35 32 37 45 33 27 23 32 40 35 40 43 39 31 29 27 24 25 18 6 9 12 15 19 20
89 94 95 91 85 78 76 79 72 68 61 58 54 53 51 52 55 54 55 53 52 46 45 39 33 44 52 42 33 30 24 29 37 40 32 41 44 38 34 30 33 28 28 16 8 4 7 7 9
78 86 94 92 84 81 82 84 76 70 64 60 57 56 55 54 55 59 63 60 46 45 34 27 38 50 47 37 34 26 22 27 28 39 29 27 40 42 34 36 36 30 28 29 24 18 14 11 19

GFSSGP_250_spd_087.txt.gz
Wind_Speed
31 25 33 40 46 45 41 37 32 31 41 47 53 57 56 42 33 28 25 23 19 16 15 13 11 12 15 15 10 19 29 21 22 22 23 26 22 29 21 21 18 17 22 23 21 20 17 19 23
27 29 30 41 45 44 45 45 42 39 43 46 52 57 55 40 35 30 30 27 25 23 21 20 19 16 14 16 16 22 27 22 17 21 18 17 14 17 20 21 18 17 18 18 19 19 24 20 23
30 31 34 40 40 46 48 45 44 42 42 46 52 57 57 38 33 29 28 28 26 23 19 19 19 22 17 12 13 15 21 18 20 23 23 21 18 20 19 19 18 18 19 20 24 25 25 19 21
32 33 37 41 41 44 44 42 41 40 41 46 50 56 56 37 30 29 31 30 29 26 21 13 15 16 17 18 11 11 18 19 20 20 20 18 17 17 19 19 20 19 22 25 29 25 21 21 23
34 36 38 41 41 41 41 40 36 36 41 43 48 52 55 38 28 26 32 30 32 30 27 21 13 11 10 10 10 9 8 10 13 15 16 18 19 20 20 20 20 25 30 30 25 21 22 23 23
35 37 39 39 40 42 43 42 40 39 40 37 44 47 50 39 25 21 27 30 35 32 29 27 23 22 21 17 8 5 8 8 8 10 14 18 19 20 20 20 24 30 29 31 25 21 23 23 22
37 39 40 41 41 43 46 45 43 38 38 36 41 43 44 42 22 17 24 30 34 34 30 30 29 28 27 24 22 18 4 12 15 14 14 17 18 19 21 21 25 29 31 30 27 22 21 22 20
40 40 40 42 42 43 42 43 43 36 38 33 39 40 43 41 38 15 19 24 29 34 31 25 28 25 23 24 24 21 22 8 12 17 17 19 19 19 18 19 22 28 34 27 28 24 22 20 16
44 42 40 40 42 42 41 39 42 31 34 32 34 36 41 37 40 23 15 21 25 30 31 27 23 26 26 22 24 22 21 18 9 15 16 19 19 15 17 18 20 25 33 29 29 25 22 19 16
44 43 41 41 42 43 40 38 39 31 32 32 29 32 35 35 37 32 16 16 17 23 25 27 30 28 26 23 23 24 23 20 15 13 15 15 18 18 15 15 19 25 28 30 29 25 20 16 10
46 42 43 44 44 45 46 43 38 32 33 30 25 29 31 31 31 31 25 20 16 17 20 22 25 27 30 30 27 28 27 21 18 13 15 15 15 16 17 15 21 29 28 27 26 25 18 12 12
44 44 45 46 43 46 45 43 38 29 32 31 25 25 28 30 31 29 27 24 16 14 14 16 18 21 25 29 29 30 30 27 18 15 12 12 14 15 17 16 19 26 28 25 25 24 18 15 14
50 45 49 46 44 47 45 43 39 33 32 30 29 22 23 25 28 28 27 26 27 17 13 9 14 15 15 17 18 22 24 26 23 13 9 7 10 12 13 13 17 23 29 26 26 24 18 15 16
55 50 54 50 47 47 44 42 44 38 36 31 29 24 21 18 23 24 26 29 26 25 21 13 9 9 11 10 14 19 16 18 19 15 14 7 8 11 11 14 17 22 27 31 30 25 19 13 13
60 58 61 57 53 50 51 45 44 45 38 35 28 22 20 17 18 21 22 24 29 31 25 15 18 14 9 5 5 11 14 11 15 15 14 10 6 11 12 13 15 22 23 23 24 21 20 16 12
66 63 68 63 61 55 52 51 47 42 40 37 35 25 19 15 14 16 20 21 24 27 30 30 22 18 18 15 9 9 11 10 12 15 7 5 3 3 10 15 16 19 25 26 24 22 23 18 18
69 66 72 69 66 60 54 53 46 40 40 40 37 32 24 21 14 14 15 18 20 22 23 28 33 29 20 16 15 17 18 14 12 9 8 5 2 2 5 7 11 16 19 27 30 23 22 21 20
72 72 74 69 69 63 57 53 49 42 42 41 35 33 30 24 20 16 12 12 17 18 20 21 24 28 30 20 17 20 20 20 11 14 11 8 9 7 8 9 13 14 16 21 27 25 27 24 23
77 74 72 71 72 64 62 55 51 45 45 40 38 31 30 28 22 19 17 12 12 16 18 20 21 19 19 25 23 22 19 16 20 15 16 13 11 13 9 11 11 18 19 22 23 27 28 25 24
78 76 70 74 74 67 66 60 57 50 48 42 38 34 28 26 25 20 20 18 16 14 18 21 24 24 23 21 18 20 21 19 15 16 18 18 16 11 13 21 16 19 23 26 26 25 25 26 26
66 69 75 76 81 73 68 60 62 54 50 47 41 36 29 28 25 26 22 20 19 17 20 22 24 26 29 31 25 19 16 21 22 19 21 19 18 16 18 21 21 17 21 27 28 31 32 29 28
64 64 78 80 84 78 73 61 60 60 55 54 43 37 31 29 26 27 26 24 23 21 24 25 26 29 33 35 26 26 19 18 23 26 24 24 18 15 19 17 21 24 24 24 25 31 34 35 32
68 76 74 83 87 83 71 63 55 60 65 57 45 39 36 30 29 28 28 27 25 24 28 29 29 30 35 34 31 27 26 21 20 27 29 28 28 20 15 22 20 20 20 22 24 28 33 37 35
77 83 81 77 82 82 72 69 56 68 66 56 49 44 40 34 34 31 30 29 29 29 32 32 33 35 37 33 29 33 25 18 17 22 29 30 29 27 24 21 29 24 23 24 28 27 30 34 36
77 81 80 79 76 74 80 72 58 71 64 57 51 46 43 42 38 36 32 31 34 34 36 35 35 40 40 34 28 27 27 14 10 15 25 31 30 30 27 28 23 22 18 22 25 27 31 34 37
79 80 78 76 75 77 84 69 65 71 65 60 54 49 46 45 43 38 35 35 37 40 39 38 39 39 35 30 26 28 20 12 16 20 15 19 32 37 36 28 28 25 20 17 19 20 24 29 22
78 78 76 76 74 75 80 76 78 72 69 64 56 51 46 45 44 40 39 40 42 43 43 41 41 37 35 26 27 33 32 27 31 28 27 28 33 37 39 33 31 28 24 23 19 21 23 25 31
78 76 77 74 75 75 77 80 80 74 70 65 59 54 50 46 45 43 43 44 46 47 46 47 49 40 34 27 35 36 29 25 29 31 33 40 32 37 44 38 36 33 27 23 17 15 15 18 19
72 75 75 75 72 73 77 80 84 78 72 69 62 56 52 49 48 46 48 49 47 46 47 49 43 27 28 29 37 39 33 30 30 36 40 42 37 37 48 44 41 36 30 24 18 18 18 16 13
61 66 73 73 75 70 75 78 83 78 74 70 65 59 56 55 53 51 51 49 46 49 47 39 32 27 23 33 41 43 35 28 31 34 41 49 49 40 48 45 41 38 33 27 25 28 27 16 16

GFSSGP_250_spd_093.txt.gz
Wind_Speed
36 38 38 39 42 45 44 44 45 48 45 46 45 29 36 45 43 34 28 19 19 22 20 13 12 15 4 13 30 41 45 50 42 39 38 40 38 37 29 22 23 17 21 20 20 16 15 15 19
35 36 37 38 40 43 41 45 46 46 46 45 45 32 28 39 42 38 37 27 20 20 20 21 18 20 20 10 8 18 26 32 34 36 36 36 33 33 26 23 17 20 19 18 17 18 16 23 20
33 35 37 37 37 41 39 42 40 47 47 45 45 45 24 32 39 42 38 34 30 23 20 21 22 21 21 18 18 15 15 17 22 36 32 31 28 31 29 22 21 17 17 11 17 20 21 24 16
36 38 40 38 35 40 40 40 37 43 47 44 46 46 33 29 36 39 39 35 33 32 32 27 22 19 18 15 15 14 16 19 21 20 23 24 23 26 25 26 22 17 17 16 17 20 20 18 21
38 38 38 36 36 37 38 37 38 38 45 43 43 45 38 28 31 35 38 36 34 32 31 33 31 29 19 12 8 9 14 16 14 17 19 20 21 21 25 24 23 20 19 18 17 19 19 23 25
38 36 35 36 35 36 37 35 36 36 39 43 40 41 38 30 26 32 32 36 33 32 33 33 31 31 28 23 7 6 12 14 11 17 15 16 13 15 19 20 21 21 19 20 21 21 23 25 24
39 38 37 37 37 35 35 34 34 38 37 39 37 38 39 35 26 26 29 32 33 34 33 31 31 30 27 25 19 6 8 11 13 17 18 17 15 17 18 21 21 20 22 21 24 26 24 24 22
40 41 41 38 37 35 35 32 31 33 37 38 38 35 35 36 32 27 24 28 28 33 34 35 35 33 33 29 27 20 3 13 12 13 16 20 21 21 21 21 21 22 23 26 25 26 21 22 24
40 41 42 43 39 35 34 35 32 34 35 38 37 34 31 33 33 31 27 22 24 27 29 29 28 31 34 36 31 27 15 13 14 14 15 17 20 21 21 20 23 25 30 26 25 25 25 26 24
44 44 44 45 43 39 35 35 35 34 34 36 38 33 30 29 31 31 30 24 18 17 19 22 23 26 28 34 35 32 22 12 14 15 18 18 17 18 19 21 25 31 29 24 23 25 25 24 22
44 45 43 46 46 45 39 37 35 36 34 35 36 31 28 25 27 29 26 27 22 14 14 16 20 19 28 32 30 31 27 19 12 13 17 18 18 17 17 20 26 30 31 25 21 22 21 20 21
45 45 46 47 47 45 42 39 37 37 35 36 36 31 25 24 21 24 25 24 24 21 17 10 12 14 19 25 25 27 25 21 16 13 13 17 17 17 17 18 23 29 31 28 25 21 19 18 21
49 50 46 48 48 45 44 42 37 37 39 37 37 31 24 19 20 18 22 21 21 22 23 17 11 9 12 15 17 18 21 22 16 13 11 12 16 16 16 16 20 26 29 29 28 24 22 18 15
53 51 50 49 53 47 45 44 39 38 39 38 37 32 23 20 16 17 15 19 17 17 21 23 19 14 8 6 9 13 14 16 12 13 8 11 11 13 15 16 19 26 28 31 29 27 23 20 16
54 55 53 53 55 51 48 49 42 41 40 38 37 35 27 20 15 15 14 13 14 16 18 20 21 20 18 14 5 6 8 9 11 9 12 10 7 10 11 14 19 22 26 29 27 27 25 19 17
49 45 53 58 58 57 50 49 47 42 41 39 38 36 33 18 18 13 15 13 10 10 13 16 18 19 17 17 15 6 6 6 5 2 3 6 4 6 9 14 16 21 27 27 26 27 24 23 18
48 45 45 56 61 63 55 48 53 44 45 41 40 38 35 24 18 17 13 15 14 11 9 8 11 12 15 17 16 12 6 6 8 3 3 4 3 3 7 13 15 19 26 31 31 28 26 26 23
50 49 48 48 55 58 52 48 51 47 40 46 41 40 37 34 23 20 16 15 17 15 11 7 8 8 8 9 14 15 15 10 10 9 10 10 9 10 7 6 15 17 21 28 31 31 30 30 30
50 51 52 54 58 53 52 47 51 52 42 45 44 42 40 38 33 22 18 17 18 19 16 13 10 11 10 12 16 17 15 17 13 15 14 16 15 12 11 10 9 13 15 22 29 29 35 34 32
57 53 53 59 65 56 57 41 43 52 47 44 45 43 42 40 36 31 19 21 21 19 19 18 15 13 15 12 14 18 17 15 16 12 17 20 19 17 13 13 14 12 12 16 20 25 34 33 32
67 64 62 63 66 61 60 46 43 43 49 46 45 45 43 42 38 36 27 21 22 22 20 21 21 18 18 16 18 20 17 12 16 13 14 18 23 20 16 16 18 18 17 16 14 20 22 29 33
70 73 75 73 68 63 62 49 45 42 42 50 48 49 46 43 40 37 30 26 23 22 22 22 22 20 19 18 19 21 18 9 12 12 12 17 22 23 21 20 19 22 20 20 21 20 23 24 25
67 75 77 77 73 65 62 49 51 45 40 47 51 51 50 46 42 39 32 30 26 23 23 24 23 22 19 19 20 23 19 15 17 22 24 24 25 27 25 23 22 22 24 23 24 25 22 24 28
65 69 70 70 70 68 59 55 51 50 45 43 52 52 54 50 44 41 39 34 30 25 25 27 26 25 23 21 22 24 24 25 14 21 22 22 27 27 32 28 29 25 22 26 28 28 29 27 26
57 61 63 63 67 66 64 57 45 52 49 48 45 53 57 52 47 46 43 40 35 27 26 29 30 29 27 24 27 30 27 26 25 19 23 23 24 23 27 37 34 33 26 29 31 30 25 23 23
46 50 55 57 60 61 64 55 46 52 52 51 47 46 53 52 51 49 46 45 35 30 29 31 32 32 30 29 31 33 33 31 26 22 26 23 31 35 37 41 42 38 32 33 31 34 33 28 28
38 43 47 50 52 55 61 53 52 51 56 54 51 51 51 55 55 53 50 48 42 34 33 33 34 33 32 32 34 31 31 32 22 11 8 18 25 38 42 41 44 41 38 37 34 34 37 32 29
35 35 43 49 50 51 52 55 58 61 64 59 56 58 52 52 58 56 54 50 46 40 36 35 35 34 33 31 33 31 28 24 25 30 21 32 28 31 43 44 41 45 42 43 42 37 35 35 30
35 33 38 45 43 45 45 46 57 62 61 57 58 60 54 54 58 59 58 54 49 46 38 36 34 34 31 30 33 34 35 28 30 38 42 44 43 38 33 45 43 42 48 46 45 45 41 37 36
35 32 34 40 43 38 38 40 54 58 58 58 59 58 56 56 59 61 60 56 51 46 38 34 33 33 30 30 34 36 29 26 25 32 42 48 52 50 31 37 50 50 47 45 46 48 46 41 37

GFSSGP_250_spd_096.txt.gz
Wind_Speed
32 33 35 34 36 37 41 41 44 46 45 48 38 30 34 40 42 35 29 21 19 20 13 10 9 23 33 38 44 51 53 51 57 46 32 27 26 28 26 25 18 21 17 16 20 19 15 17 13
33 35 34 33 32 35 38 39 40 43 45 46 43 30 33 38 40 38 33 29 23 18 16 13 10 9 10 31 46 48 50 49 51 54 32 26 24 26 30 23 19 20 21 21 20 20 19 16 18
34 35 33 33 32 33 34 37 41 41 44 42 43 36 31 33 36 36 33 32 31 26 21 15 15 16 16 13 13 31 50 50 46 49 38 35 33 34 33 29 23 20 21 18 20 21 19 16 22
34 34 32 32 32 29 31 34 38 40 42 41 41 41 29 28 31 35 33 33 32 33 30 27 24 16 15 17 18 14 19 32 37 36 38 32 31 31 33 26 23 19 20 19 18 17 19 20 22
35 35 33 30 30 29 26 30 31 37 41 41 38 38 36 25 25 30 32 30 32 32 30 28 27 26 15 11 15 16 17 18 21 23 29 29 29 33 32 29 29 24 21 18 16 18 18 21 17
36 36 34 28 29 29 27 27 30 32 37 40 38 35 35 31 23 26 27 30 32 33 33 31 27 28 22 13 8 12 20 18 20 17 22 26 24 25 28 29 26 25 23 19 19 18 18 18 22
37 37 35 32 30 28 29 26 28 31 33 35 38 35 32 32 26 20 22 27 28 29 32 33 33 31 27 22 10 10 15 15 13 18 20 21 21 24 30 28 30 26 21 21 22 21 20 23 26
38 38 39 37 34 30 29 30 26 28 29 32 35 31 30 30 27 23 15 19 23 26 28 29 32 35 28 26 20 11 14 12 16 17 16 17 16 20 24 24 23 23 23 24 23 22 24 26 24
37 39 39 40 36 32 31 30 30 29 29 30 32 32 27 26 28 27 17 12 14 18 23 23 28 32 34 30 25 17 19 13 13 16 17 18 17 15 20 21 23 23 25 25 23 24 24 25 24
37 39 40 41 39 34 32 32 29 29 29 29 29 31 25 23 23 26 25 17 11 14 16 19 22 28 31 32 28 21 16 12 13 15 18 20 21 19 20 21 24 25 23 24 24 25 23 20 24
43 41 44 43 42 37 35 32 30 27 28 30 28 28 26 21 19 22 23 21 17 14 12 11 13 18 24 27 27 23 17 13 12 15 16 16 18 19 19 19 21 23 26 22 23 23 23 23 21
49 49 45 43 45 41 38 34 34 27 27 29 29 29 26 20 17 16 18 21 20 19 14 10 9 12 15 19 23 24 19 15 11 12 15 15 15 14 13 17 22 27 26 25 24 24 26 24 22
43 48 46 47 45 47 41 38 35 30 31 29 29 29 25 22 16 13 13 15 18 17 18 14 11 7 8 10 15 19 18 15 12 11 13 14 15 14 14 18 23 26 26 24 25 25 22 22 22
45 43 43 43 47 49 47 43 39 34 33 31 28 28 26 21 17 11 10 10 13 15 15 17 17 10 7 7 8 11 16 13 12 9 11 15 15 14 14 14 20 26 28 25 23 23 21 18 15
42 42 43 44 44 46 47 45 46 38 34 33 30 29 28 22 17 11 9 8 6 9 12 12 14 15 14 7 5 4 7 9 9 10 10 11 13 16 16 17 18 25 30 27 25 25 23 21 18
38 39 43 45 46 47 45 45 51 42 39 34 31 30 29 28 21 14 10 9 7 6 5 10 11 12 11 12 9 5 1 3 5 6 8 7 8 8 11 16 18 23 27 31 32 29 27 24 20
38 38 40 43 41 45 44 42 48 46 43 38 37 33 30 28 28 15 14 12 9 11 10 4 3 7 9 11 14 10 5 4 4 7 8 8 10 6 10 11 15 21 25 28 31 30 29 27 23
42 43 46 43 47 42 45 43 40 48 46 45 41 38 34 28 29 24 18 14 12 12 14 10 6 3 6 5 7 10 10 8 5 10 13 12 11 11 8 10 17 19 24 28 30 30 30 30 26
49 50 51 50 49 50 46 45 44 44 45 47 46 43 39 34 29 31 22 17 15 12 15 16 14 10 6 6 8 10 13 10 8 7 14 17 16 16 13 11 12 20 21 27 32 32 31 31 30
56 58 59 60 56 59 54 46 44 43 49 46 47 48 45 40 34 34 29 21 19 15 14 18 17 15 12 10 9 9 14 12 11 9 8 18 21 21 18 17 13 16 19 23 27 32 35 36 34
59 64 67 69 70 67 59 51 48 48 47 44 43 52 50 46 41 37 31 27 22 18 17 17 20 17 16 13 13 11 8 5 9 8 8 16 19 25 23 21 20 19 18 20 21 26 30 34 37
61 70 73 75 73 66 64 48 53 46 51 47 43 47 54 51 46 41 35 31 25 22 19 19 17 20 18 17 15 14 12 7 11 16 14 11 20 23 25 25 23 21 23 24 22 21 21 27 33
66 73 76 70 67 58 56 49 54 52 51 50 48 47 54 56 51 46 40 35 30 28 23 19 18 22 20 20 19 16 16 14 14 18 20 19 16 24 28 29 27 26 26 27 26 24 26 22 25
70 71 68 62 59 54 49 46 52 58 54 52 51 51 51 58 55 49 44 39 35 32 28 23 23 22 20 21 22 20 20 21 19 17 19 20 18 15 19 30 29 28 28 28 28 28 28 29 27
72 68 56 53 50 46 46 48 44 57 55 55 56 53 49 50 56 53 49 44 41 36 33 29 25 23 23 24 23 22 23 24 28 20 20 17 19 17 17 23 28 34 32 32 27 28 28 29 29
72 64 48 44 36 38 43 39 43 56 62 59 57 54 50 45 48 52 52 48 45 41 38 33 30 27 26 25 24 25 24 25 26 24 19 22 19 16 22 26 33 33 40 39 38 33 32 30 29
72 60 44 37 30 34 39 34 48 54 65 60 56 55 53 48 50 58 57 53 50 45 41 36 35 33 30 26 25 26 25 27 22 19 21 22 18 13 11 17 28 39 38 42 40 40 38 34 31
72 57 44 36 26 27 36 37 46 54 64 60 60 58 56 53 54 51 57 57 51 48 44 39 39 39 32 29 27 27 28 29 23 23 20 24 24 23 30 25 28 28 41 43 46 43 44 40 35
70 52 44 33 24 25 29 33 46 55 59 64 63 60 58 58 58 52 53 56 51 50 48 44 43 42 34 31 31 28 31 29 25 28 25 17 15 23 31 37 38 36 32 44 44 47 46 47 40
67 50 43 31 24 25 22 36 47 54 58 64 62 61 59 60 63 54 53 49 48 49 49 49 46 42 33 30 28 28 33 32 28 24 28 18 22 29 31 30 26 30 34 39 45 45 51 49 45

GFSSGP_250_spd_102.txt.gz
Wind_Speed
31 31 28 27 27 20 25 29 25 33 34 36 36 34 33 30 27 27 28 20 14 8 15 27 44 44 44 42 45 38 39 39 37 41 41 37 39 40 34 29 25 21 22 17 16 17 17 15 10
32 33 29 26 23 22 23 26 29 27 32 33 34 34 30 26 30 34 30 29 22 12 9 28 42 47 46 42 46 36 42 42 41 40 34 42 40 42 35 30 31 24 23 17 15 17 16 14 12
35 34 30 28 26 23 21 21 27 26 29 31 30 32 27 26 27 32 31 31 26 22 7 7 24 42 49 48 53 48 44 40 42 44 41 37 35 36 33 22 24 22 22 19 16 15 15 16 14
39 42 46 25 24 28 22 22 24 27 27 26 28 30 31 23 20 26 27 29 30 27 22 12 7 13 25 43 56 60 56 52 46 38 37 40 32 29 32 27 18 20 20 13 12 18 18 15 16
41 37 34 17 44 39 26 22 24 26 26 24 25 25 27 25 18 18 23 23 26 27 28 24 14 5 7 13 38 57 60 54 50 48 43 38 37 33 33 29 31 24 19 15 13 19 19 18 16
36 30 33 42 50 40 26 24 25 26 24 23 24 21 22 23 20 15 19 21 21 24 28 27 22 10 4 4 8 39 61 56 58 49 45 43 46 40 31 29 26 23 21 12 15 17 18 17 16
25 21 37 23 38 29 27 31 32 27 26 20 22 22 19 18 20 21 18 17 16 17 22 26 25 20 5 6 6 11 31 57 60 58 50 41 37 29 30 30 24 28 23 17 16 17 16 15 16
20 16 19 22 45 24 23 31 37 30 27 22 19 19 19 17 18 19 21 19 16 14 16 20 24 22 17 6 8 11 12 17 30 47 54 46 43 32 28 31 28 26 23 21 22 20 18 15 16
18 11 10 24 19 45 37 44 41 31 26 23 21 20 19 15 15 16 18 20 20 14 12 15 20 23 20 11 11 10 11 12 13 17 22 33 38 39 39 35 26 27 27 26 25 24 21 18 17
21 16 4 8 12 5 23 38 38 32 24 18 18 13 19 16 11 12 14 17 20 20 11 9 15 20 20 15 11 8 8 10 13 15 16 18 21 27 30 27 25 25 27 25 22 22 20 18 17
23 23 20 19 23 33 42 46 33 29 27 8 15 28 23 14 11 8 9 11 16 19 14 9 9 15 18 16 12 12 10 10 14 15 18 19 11 20 26 26 24 22 22 22 23 22 21 18 19
24 21 20 22 24 32 38 35 30 27 25 20 12 25 14 14 13 8 5 7 11 14 16 12 6 8 13 16 14 12 12 13 13 14 18 18 23 19 18 19 21 21 21 22 22 20 17 19 25
26 23 21 19 24 27 30 28 28 23 24 28 31 30 24 20 13 8 7 4 4 9 11 13 9 4 6 12 14 13 11 10 10 10 12 14 18 16 16 15 19 22 20 20 17 17 19 20 20
32 29 25 23 23 26 25 26 23 22 20 25 31 26 31 24 20 10 7 7 6 1 6 9 10 10 3 4 11 12 11 10 10 8 6 6 12 14 15 15 14 15 16 16 15 19 18 15 17
35 32 29 28 26 27 25 30 26 24 20 23 27 33 31 32 24 17 11 8 8 7 2 3 5 7 9 4 3 6 10 8 22 13 3 9 11 12 15 17 16 16 17 14 16 18 16 17 17
36 35 31 32 30 28 26 29 34 29 25 24 25 30 30 33 31 24 17 13 12 9 10 5 2 3 4 7 4 3 4 5 10 13 15 17 16 12 12 13 14 20 18 14 13 16 19 18 16
41 38 35 35 37 33 31 29 33 35 34 32 25 30 33 34 36 31 25 20 16 14 12 13 8 5 2 1 5 3 3 4 5 9 14 16 16 15 15 14 14 17 18 19 17 18 17 19 19
41 41 41 41 41 39 37 34 34 36 38 36 32 32 32 35 38 38 32 27 23 18 15 16 17 13 9 5 3 1 2 2 6 11 11 10 12 15 17 17 16 15 18 23 25 24 21 19 20
42 44 45 46 45 43 40 39 39 41 37 42 41 36 36 37 41 42 37 34 28 24 19 17 20 19 16 13 9 6 3 4 4 7 14 12 14 15 15 14 17 16 14 23 23 28 22 21 23
48 46 48 50 50 47 46 42 46 45 47 46 49 47 44 43 43 44 43 39 35 30 24 21 19 23 23 20 16 12 9 5 3 4 7 17 18 17 17 18 18 16 17 17 24 28 35 33 27
52 54 54 54 53 52 52 43 50 53 56 56 54 52 50 53 47 47 44 45 40 36 32 26 23 20 25 26 22 17 14 10 6 3 4 3 12 21 19 18 19 17 17 21 24 27 25 29 33
55 57 58 60 58 52 61 53 50 58 62 60 56 52 52 55 52 55 46 49 45 44 38 32 30 25 23 26 26 23 19 16 12 9 4 1 4 7 20 21 21 19 19 18 20 23 25 26 27
58 60 63 64 61 58 57 65 62 62 59 53 45 48 49 56 58 58 49 55 52 47 43 38 35 31 25 26 28 26 23 19 18 12 10 4 3 7 8 11 15 18 24 25 23 22 21 23 24
59 61 64 64 62 60 58 60 58 55 48 35 34 40 48 55 60 62 54 57 55 52 47 44 39 36 30 27 27 27 25 22 20 18 14 10 5 6 8 11 19 15 20 32 31 27 28 27 25
60 63 65 65 64 65 70 70 58 47 35 26 30 39 43 58 66 67 55 57 56 55 53 48 44 42 36 33 29 27 24 23 23 21 18 10 10 10 13 15 20 29 36 35 35 32 31 30 32
64 68 69 67 64 64 70 69 56 37 28 28 34 45 44 62 63 65 50 54 55 56 55 50 48 46 41 37 31 28 25 24 24 23 21 22 20 15 14 16 20 27 34 29 33 32 34 35 34
66 70 71 69 67 65 65 66 43 27 24 25 24 30 30 43 52 53 50 44 49 50 56 54 50 48 45 40 35 33 29 26 25 25 22 24 22 18 19 17 21 28 34 37 37 34 33 39 40
69 68 70 71 73 68 67 54 37 24 13 21 22 15 19 31 43 45 45 58 55 56 59 58 53 51 47 44 40 36 32 28 27 29 28 27 25 25 24 22 24 23 27 34 36 39 37 35 37
73 72 71 71 77 71 67 56 30 17 19 2 13 21 19 16 10 35 50 50 56 55 51 54 55 55 51 46 43 41 38 34 32 32 32 30 31 29 29 28 27 31 27 27 23 28 37 38 37
73 71 69 70 73 71 63 52 28 12 2 16 24 30 17 36 35 61 54 50 54 59 51 49 55 53 51 47 43 45 44 41 42 40 38 36 35 36 34 31 34 40 38 31 35 35 38 37 43

GFSSGP_250_spd_105.txt.gz
Wind_Speed
31 31 23 20 17 17 19 23 21 26 25 28 26 29 24 33 33 34 33 29 16 10 6 23 42 35 33 35 43 31 30 30 27 25 32 34 34 34 35 23 18 17 17 16 16 17 16 15 14
33 34 31 27 11 17 18 18 24 24 25 26 24 24 23 28 32 31 31 33 29 14 8 13 24 39 41 36 40 40 39 34 32 26 31 35 35 33 36 38 25 23 20 15 16 12 14 13 15
31 33 38 26 10 32 27 15 19 23 20 21 24 23 20 16 21 26 27 28 30 26 10 3 15 37 39 39 36 40 40 36 31 35 36 33 33 37 32 34 30 29 21 16 13 15 17 13 16
31 31 30 18 22 31 34 12 18 22 21 16 17 20 19 13 14 19 22 25 26 30 26 10 18 31 42 42 38 40 42 46 40 36 39 40 41 26 33 28 17 10 12 14 13 14 17 13 16
27 23 21 25 17 28 40 12 17 17 22 18 15 15 17 20 16 15 17 18 22 24 27 20 2 21 39 45 42 47 49 40 38 45 42 44 40 36 29 27 25 24 17 18 15 11 13 13 14
23 12 21 5 14 32 37 24 27 26 33 18 16 14 14 15 16 17 16 14 15 17 22 23 15 3 16 19 32 47 55 51 47 38 34 30 34 35 35 30 24 23 21 19 13 14 14 14 15
16 16 11 25 31 33 44 33 32 27 28 22 14 13 16 12 14 14 17 19 16 13 18 19 19 13 2 11 6 23 51 58 55 52 48 43 39 36 32 32 27 29 24 20 16 13 12 13 13
18 14 15 22 26 31 38 28 23 24 29 21 16 14 12 18 11 13 14 16 18 7 13 17 20 16 11 8 4 4 12 45 61 51 52 49 44 41 35 32 30 31 21 25 17 14 13 14 12
18 13 11 11 15 28 24 29 22 30 39 25 19 15 17 8 16 10 13 15 17 13 8 13 18 17 16 11 6 8 7 11 36 49 51 49 44 41 35 33 38 31 24 23 20 17 18 17 14
15 10 10 10 17 14 24 22 39 51 37 26 23 13 14 16 12 9 8 12 15 18 10 8 13 17 14 13 5 1 5 8 12 30 48 44 48 48 49 32 28 32 30 23 23 22 19 20 19
17 16 9 10 22 29 34 40 36 41 36 24 25 13 11 18 10 10 7 8 11 13 16 7 9 13 14 10 9 5 7 7 13 14 18 32 38 40 39 43 35 33 31 31 28 22 20 18 18
20 21 19 10 16 22 26 31 29 32 34 25 20 19 15 24 13 12 8 3 7 10 13 13 5 7 11 13 11 11 9 9 8 10 11 14 16 18 23 28 29 29 26 22 23 22 22 18 19
20 21 22 25 21 17 20 24 26 26 25 22 19 22 29 19 15 14 9 7 2 4 8 11 8 4 6 9 12 13 12 12 12 12 14 15 17 14 15 19 18 20 19 19 19 20 19 18 19
23 24 24 25 27 27 26 26 27 26 26 22 13 23 26 22 20 17 10 9 9 2 3 5 10 7 2 5 8 10 16 19 17 8 13 14 15 13 10 13 15 18 18 18 17 15 16 18 20
24 27 27 26 27 27 25 28 28 29 28 27 13 18 22 29 27 22 14 12 13 10 4 2 3 7 6 4 2 4 6 8 6 5 6 7 12 14 14 14 14 15 16 14 12 12 17 17 16
26 26 31 30 29 30 26 28 30 31 32 31 20 18 20 27 31 26 21 17 16 15 11 8 4 3 6 5 5 2 3 2 11 14 7 11 11 11 12 14 13 13 14 12 15 17 19 15 16
31 31 29 34 31 32 31 26 28 30 34 35 29 21 23 22 28 30 27 23 21 19 18 14 11 7 5 4 7 6 4 3 5 10 12 12 13 10 10 11 12 15 17 16 16 18 19 17 14
35 34 33 32 34 34 36 32 30 30 30 35 32 32 26 28 24 32 34 31 27 26 22 21 16 13 10 7 6 7 4 4 6 7 9 12 15 13 12 13 13 15 15 14 13 14 18 18 16
36 37 35 38 39 38 40 36 35 34 34 34 38 35 34 32 31 31 39 38 34 31 27 24 24 19 16 14 9 5 5 2 2 6 10 11 10 13 16 16 16 16 14 17 17 18 18 20 19
41 41 41 39 41 43 44 43 43 38 37 40 40 43 42 38 38 34 38 41 41 36 33 29 26 25 21 19 16 12 8 3 1 2 5 11 11 11 13 16 17 18 18 16 18 24 26 26 23
44 45 41 38 45 48 46 41 43 46 46 44 46 48 50 49 45 43 41 41 46 44 39 34 30 29 27 24 22 19 15 10 5 1 2 3 10 13 14 16 16 18 18 17 18 20 21 24 28
48 51 46 42 48 51 54 43 50 48 51 55 60 56 52 51 51 49 44 44 47 50 46 40 35 33 30 27 25 24 21 16 11 8 4 5 4 8 17 17 16 16 17 14 13 16 21 22 22
50 51 49 48 52 55 61 54 50 55 59 56 44 39 40 42 55 54 52 50 53 54 52 44 39 38 33 29 27 25 24 22 18 14 10 6 4 7 7 18 19 16 16 16 15 19 21 20 22
53 53 51 51 56 56 57 57 56 51 58 46 34 33 36 44 46 54 51 52 55 55 53 49 42 40 34 31 29 25 23 23 23 19 16 10 7 6 8 9 11 16 12 15 15 21 24 28 24
53 52 48 47 55 59 61 62 61 63 49 31 28 24 26 34 34 40 40 48 53 53 49 49 44 42 36 34 32 27 26 26 25 23 20 18 12 9 9 8 10 20 15 20 29 26 27 32 30
54 53 54 52 56 59 61 61 62 66 43 24 18 9 11 21 21 29 30 46 49 52 41 46 46 42 38 37 36 32 29 28 28 27 25 23 20 15 11 11 14 15 19 22 32 37 32 30 33
58 56 59 59 59 60 61 61 58 59 33 5 19 15 3 13 20 10 15 32 46 34 34 43 47 46 42 39 39 37 34 32 29 30 29 27 25 23 19 18 17 19 23 27 31 34 37 35 34
62 57 57 64 62 60 61 57 58 47 18 25 22 18 13 9 8 14 13 17 30 34 36 27 40 50 49 44 43 42 40 38 34 31 29 27 25 24 23 21 23 25 28 29 32 36 35 37 37
61 59 60 64 64 64 58 63 54 33 9 24 21 24 24 19 17 19 36 32 30 32 47 44 35 43 49 53 50 48 44 41 40 38 33 31 31 28 26 28 29 30 35 38 40 35 33 28 29
62 61 62 65 66 67 59 60 48 26 18 22 32 32 26 22 18 23 53 51 63 10 63 45 27 37 43 55 58 54 49 46 45 43 40 36 37 34 33 31 33 35 34 36 37 32 33 38 38

GFSSGP_250_spd_111.txt.gz
Wind_Speed
7 22 17 15 6 4 20 24 16 24 30 24 21 17 17 15 14 19 23 28 19 10 8 9 5 20 23 38 41 44 43 35 31 36 26 22 18 20 19 15 10 12 6 6 8 14 14 9 14
9 25 7 7 6 9 14 23 27 26 25 16 16 17 18 18 18 17 19 23 27 13 9 9 6 15 21 29 33 40 40 37 33 38 30 30 26 14 15 12 22 20 12 8 13 17 11 14 14
13 10 4 6 3 8 13 17 26 29 21 11 13 14 19 22 22 21 16 19 22 22 4 11 14 8 24 25 25 33 37 34 37 34 31 32 31 22 17 22 21 15 16 20 18 11 11 14 12
8 6 5 7 15 14 7 17 22 15 16 17 15 17 17 21 23 22 23 17 16 20 18 5 11 15 20 24 21 27 34 34 40 35 34 30 28 30 25 27 22 22 14 10 4 6 8 13 12
3 0 4 4 11 9 14 19 14 18 14 23 21 23 17 19 20 22 22 22 14 16 18 13 10 17 25 24 23 25 34 35 42 33 34 33 30 31 32 25 23 21 19 13 11 13 11 16 14
1 7 4 7 11 10 10 24 19 20 22 25 23 21 23 14 14 15 18 20 17 13 16 16 7 18 24 24 25 23 32 37 37 36 33 30 38 31 33 31 24 20 19 17 15 12 18 17 15
3 5 4 8 10 17 21 23 26 20 28 28 17 17 13 16 12 12 15 16 18 11 12 13 9 6 22 25 28 31 32 33 38 37 35 25 26 29 36 36 26 24 19 15 12 12 13 13 13
7 9 6 9 11 18 25 26 29 22 17 20 10 15 19 27 17 12 14 14 15 12 8 13 14 8 14 28 32 36 39 35 38 40 41 39 33 33 31 29 30 28 26 25 23 20 16 16 11
16 9 15 9 18 32 29 35 32 28 17 20 26 25 32 28 21 10 11 10 12 12 6 11 14 14 10 15 24 37 41 39 42 43 41 42 43 39 37 34 31 33 29 25 24 17 20 20 13
19 18 16 15 18 23 25 24 29 30 24 28 36 37 35 27 20 10 10 6 7 11 7 9 12 9 6 6 12 17 24 46 52 47 43 42 36 35 33 31 25 21 22 21 21 21 23 18 16
17 20 22 22 21 18 16 15 17 20 21 22 23 20 22 25 21 9 11 5 7 8 10 5 9 10 7 6 8 9 3 6 28 44 47 47 41 37 34 30 30 30 25 29 24 24 25 20 20
17 18 21 24 26 27 25 21 18 19 17 18 20 17 18 19 17 16 11 9 6 4 8 4 4 8 10 8 7 6 5 10 10 33 45 43 40 43 39 34 33 29 27 30 27 28 28 25 23
19 18 21 22 24 25 28 27 22 19 18 16 16 14 13 10 16 21 14 14 10 3 2 4 1 5 10 10 11 10 9 12 13 15 24 32 36 35 33 33 33 35 31 26 28 29 23 29 26
25 24 21 23 26 27 30 29 25 23 18 18 18 15 11 8 12 22 21 16 14 9 4 1 1 3 8 10 12 18 15 10 10 14 17 18 22 23 28 32 37 40 36 29 25 24 26 29 30
28 29 28 27 27 28 30 29 27 26 23 18 19 18 11 14 14 19 25 26 20 16 10 7 4 2 5 8 9 12 11 8 7 11 12 13 15 14 15 15 14 15 14 18 20 23 23 19 20
28 31 30 29 32 34 35 32 28 29 27 21 18 18 16 19 27 25 22 26 27 22 17 13 8 5 5 9 7 9 9 7 8 6 7 7 9 10 10 10 13 12 13 15 16 17 17 19 20
30 31 35 34 34 36 35 39 32 30 31 24 18 14 15 19 23 25 27 21 30 28 24 20 15 11 8 8 7 6 6 10 7 6 8 8 7 9 13 14 13 13 13 15 16 13 16 17 15
32 34 36 38 39 40 39 40 42 36 35 32 20 16 18 18 23 24 28 27 25 32 30 26 22 17 14 11 11 8 7 6 11 11 9 7 12 10 11 11 13 13 13 14 14 11 13 18 16
33 35 37 38 43 47 46 47 40 42 39 34 28 21 21 23 18 39 31 28 31 30 35 32 27 23 19 17 16 13 10 9 8 8 10 10 13 12 9 7 9 13 15 15 15 14 18 14 12
34 36 38 40 44 46 45 46 39 43 44 41 37 28 25 29 29 30 33 35 33 33 37 37 33 29 26 23 20 16 11 10 13 10 9 12 10 11 12 11 10 12 16 15 13 13 14 14 15
33 37 38 39 42 47 47 45 40 41 48 50 48 40 32 32 35 39 40 39 43 39 39 42 40 33 31 29 25 22 16 12 11 12 11 10 12 12 13 15 15 14 15 13 16 14 12 11 14
37 37 40 41 43 49 45 45 43 44 47 54 53 48 44 44 45 46 47 49 46 47 44 47 46 40 36 34 31 27 23 19 14 12 13 11 11 12 12 13 15 17 15 15 13 8 8 7 9
36 39 42 47 49 52 51 48 45 45 47 55 58 52 56 58 52 38 46 55 55 53 49 52 54 51 45 40 37 33 28 24 20 18 15 16 15 10 13 15 14 15 14 16 13 10 13 14 12
39 39 44 48 52 55 54 50 49 46 46 49 52 56 63 65 57 36 34 55 61 62 56 52 58 57 52 48 44 40 35 29 25 21 19 17 16 13 11 14 19 18 15 14 12 19 21 19 18
42 43 47 51 52 55 56 53 52 50 47 46 48 56 58 60 45 35 31 41 67 73 67 63 63 63 57 53 48 46 41 35 31 27 23 21 18 16 15 14 18 20 16 11 13 19 30 26 23
48 48 50 52 53 55 58 54 54 54 52 51 51 54 60 58 41 33 34 31 59 75 77 70 65 67 62 57 52 48 41 35 30 27 26 24 23 20 19 19 21 19 18 20 23 26 29 29 28
49 50 54 57 58 55 57 55 56 57 55 52 51 53 56 54 39 33 28 30 53 74 79 72 66 68 67 60 54 49 43 37 31 28 27 25 25 22 19 20 21 19 23 22 21 25 27 28 26
54 53 60 63 60 59 57 57 58 58 60 57 54 53 53 48 38 32 31 25 41 65 74 68 65 66 70 64 55 48 44 35 30 25 24 23 24 22 22 22 21 20 18 15 17 14 18 22 24
66 62 62 65 65 63 58 55 55 56 55 56 56 52 51 43 36 32 30 37 41 59 67 63 57 63 68 61 54 45 45 42 33 30 25 20 18 21 23 25 25 23 21 20 19 18 21 20 18
69 71 71 68 68 67 62 56 56 56 54 55 52 50 46 38 33 34 36 44 48 59 67 68 64 63 67 65 55 50 42 35 29 27 22 20 20 19 19 21 23 23 23 23 20 15 8 14 18